GW0500 Weather Reports


Display with metric or nautical units.
time (UTC)temp
F
wind
direction
speed
MPH
gust
MPH
rain 1hr
in
rain 24hr
in
rain mn
in
humidity
%
barometer
mb
20260901030551 63 0 0.0 0.0 0.00 0.00 0.00 57 1020.3
20260901030104 64 0 0.0 0.0 0.00 0.00 0.00 56 1020.2
20260901025545 64 0 0.0 0.0 0.00 0.00 0.00 56 1020.2
20260901025048 64 0 0.0 0.0 0.00 0.00 0.00 56 1020.2
20260901024609 65 0 0.0 0.0 0.00 0.00 0.00 55 1020.0
20260901024046 65 0 0.0 0.0 0.00 0.00 0.00 55 1020.0
20260901023548 65 0 0.0 0.0 0.00 0.00 0.00 54 1020.0
20260901023106 66 0 0.0 0.0 0.00 0.00 0.00 53 1019.9
20260901022547 66 0 0.0 1.0 0.00 0.00 0.00 53 1019.9
20260901022045 67 0 0.0 1.0 0.00 0.00 0.00 53 1019.8
20260901021607 67 0 0.0 0.0 0.00 0.00 0.00 53 1019.7
20260901021045 68 0 0.0 0.0 0.00 0.00 0.00 52 1019.6
20260901020545 68 0 0.0 0.0 0.00 0.00 0.00 52 1019.5
20260901020105 68 0 0.0 4.0 0.00 0.00 0.00 52 1019.5
20260901015549 69 0 0.0 4.0 0.00 0.00 0.00 52 1019.5
20260901015047 69 0 0.0 4.0 0.00 0.00 0.00 51 1019.6
20260901014607 69 0 0.0 4.0 0.00 0.00 0.00 51 1019.6
20260901014047 70 178 0.0 5.0 0.00 0.00 0.00 51 1019.6
20260901013632 70 171 1.0 6.0 0.00 0.00 0.00 50 1019.6
20260901013547 70 171 1.0 6.0 0.00 0.00 0.00 50 1019.6
20260901013106 70 0 1.0 7.0 0.00 0.00 0.00 50 1019.7
20260901012626 70 186 1.0 7.0 0.00 0.00 0.00 50 1019.6
20260901012045 71 182 0.0 4.0 0.00 0.00 0.00 50 1019.6
20260901011626 71 0 0.0 3.0 0.00 0.00 0.00 52 1019.6
20260901011047 71 0 0.0 3.0 0.00 0.00 0.00 50 1019.6
20260901010547 72 0 0.0 3.0 0.00 0.00 0.00 50 1019.5
20260901010112 72 0 0.0 9.0 0.00 0.00 0.00 50 1019.5
20260901005547 72 259 2.0 9.0 0.00 0.00 0.00 50 1019.6
20260901005047 73 185 1.0 6.0 0.00 0.00 0.00 49 1019.6
20260901004611 73 159 1.0 5.0 0.00 0.00 0.00 49 1019.6
20260901004045 74 84 2.0 5.0 0.00 0.00 0.00 48 1019.7
20260901003624 74 158 1.0 9.0 0.00 0.00 0.00 49 1019.7
20260901003545 74 158 1.0 9.0 0.00 0.00 0.00 49 1019.7
20260901003110 74 137 1.0 9.0 0.00 0.00 0.00 50 1019.7
20260901002544 74 0 1.0 6.0 0.00 0.00 0.00 49 1019.8
20260901002050 74 216 1.0 6.0 0.00 0.00 0.00 49 1019.9
20260901001601 75 305 3.0 8.0 0.00 0.00 0.00 49 1019.8
20260901001048 75 203 3.0 9.0 0.00 0.00 0.00 49 1019.8
20260901000547 75 189 4.0 9.0 0.00 0.00 0.00 49 1019.8
20260831235547 76 156 2.0 8.0 0.00 0.00 0.00 48 1019.9
20260831235047 76 89 3.0 8.0 0.00 0.00 0.00 48 1020.0
20260831234605 76 109 2.0 7.0 0.00 0.00 0.00 49 1019.9
20260831234047 77 161 2.0 7.0 0.00 0.00 0.00 47 1020.0
20260831233547 77 165 2.0 9.0 0.00 0.00 0.00 47 1019.9
20260831233104 77 156 3.0 9.0 0.00 0.00 0.00 46 1019.9
20260831232546 78 156 2.0 9.0 0.00 0.00 0.00 46 1019.9
20260831232047 78 147 2.0 9.0 0.00 0.00 0.00 46 1019.9
20260831231601 78 182 1.0 8.0 0.00 0.00 0.00 45 1019.9
20260831231048 79 220 2.0 7.0 0.00 0.00 0.00 45 1019.9
20260831230548 79 188 1.0 6.0 0.00 0.00 0.00 45 1020.0
20260831230108 79 227 2.0 8.0 0.00 0.00 0.00 45 1020.2
20260831225547 78 228 3.0 11.0 0.00 0.00 0.00 45 1020.0
20260831225048 79 113 3.0 11.0 0.00 0.00 0.00 44 1020.2
20260831224602 79 179 1.0 10.0 0.00 0.00 0.00 45 1020.2
20260831224048 79 166 3.0 10.0 0.00 0.00 0.00 45 1020.2
20260831223548 79 0 1.0 9.0 0.00 0.00 0.00 45 1020.0
20260831223107 79 186 2.0 9.0 0.00 0.00 0.00 45 1020.2
20260831222549 79 146 2.0 9.0 0.00 0.00 0.00 46 1020.2
20260831222048 80 117 3.0 9.0 0.00 0.00 0.00 45 1020.2
20260831221606 80 339 2.0 11.0 0.00 0.00 0.00 45 1020.3
20260831221047 80 202 3.0 11.0 0.00 0.00 0.00 43 1020.3
20260831220547 80 192 2.0 9.0 0.00 0.00 0.00 44 1020.3
20260831220113 80 201 3.0 9.0 0.00 0.00 0.00 45 1020.1
20260831215546 80 229 3.0 10.0 0.00 0.00 0.00 43 1020.2
20260831215047 80 203 3.0 10.0 0.00 0.00 0.00 42 1020.3
20260831214627 80 170 3.0 10.0 0.00 0.00 0.00 41 1020.3
20260831214048 80 160 3.0 11.0 0.00 0.00 0.00 41 1020.3
20260831213547 80 150 3.0 11.0 0.00 0.00 0.00 41 1020.3
20260831213102 80 197 3.0 11.0 0.00 0.00 0.00 40 1020.4
20260831212544 81 142 2.0 11.0 0.00 0.00 0.00 38 1020.5
20260831212046 81 214 2.0 12.0 0.00 0.00 0.00 37 1020.6
20260831211604 81 198 3.0 12.0 0.00 0.00 0.00 36 1020.7
20260831211049 81 168 3.0 9.0 0.00 0.00 0.00 34 1020.6
20260831210550 81 79 2.0 8.0 0.00 0.00 0.00 35 1020.6
20260831210109 81 188 1.0 8.0 0.00 0.00 0.00 36 1020.7
20260831205548 80 146 3.0 8.0 0.00 0.00 0.00 36 1020.8
20260831205045 80 204 2.0 11.0 0.00 0.00 0.00 37 1020.7
20260831204635 80 136 3.0 11.0 0.00 0.00 0.00 34 1021.0
20260831204050 81 215 3.0 11.0 0.00 0.00 0.00 33 1021.0
20260831203549 81 294 2.0 7.0 0.00 0.00 0.00 34 1021.0
20260831203108 81 138 2.0 10.0 0.00 0.00 0.00 36 1021.1
20260831202545 81 0 2.0 10.0 0.00 0.00 0.00 34 1021.1
20260831202048 80 169 1.0 14.0 0.00 0.00 0.00 36 1021.1
20260831201602 80 334 3.0 14.0 0.00 0.00 0.00 36 1021.1
20260831201048 80 169 3.0 10.0 0.00 0.00 0.00 34 1021.0
20260831200550 80 165 3.0 10.0 0.00 0.00 0.00 35 1021.1
20260831200107 80 135 3.0 8.0 0.00 0.00 0.00 34 1021.1
20260831195549 80 173 2.0 8.0 0.00 0.00 0.00 33 1021.0
20260831195050 80 237 2.0 9.0 0.00 0.00 0.00 34 1021.0
20260831194559 80 102 1.0 11.0 0.00 0.00 0.00 35 1021.0
20260831194050 79 221 3.0 11.0 0.00 0.00 0.00 33 1021.2
20260831193551 79 144 3.0 6.0 0.00 0.00 0.00 35 1021.2
20260831193103 79 78 2.0 10.0 0.00 0.00 0.00 37 1021.1
20260831192549 79 181 4.0 12.0 0.00 0.00 0.00 34 1021.2
20260831192047 79 360 3.0 12.0 0.00 0.00 0.00 34 1021.2
20260831191601 79 194 3.0 13.0 0.00 0.00 0.00 36 1021.2
20260831191050 79 213 3.0 13.0 0.00 0.00 0.00 35 1021.3
20260831190548 78 164 4.0 11.0 0.00 0.00 0.00 34 1021.2
20260831190113 78 171 3.0 11.0 0.00 0.00 0.00 33 1021.3
20260831185547 78 118 2.0 8.0 0.00 0.00 0.00 35 1021.1
20260831185047 79 144 3.0 8.0 0.00 0.00 0.00 34 1021.3
20260831184605 78 147 2.0 7.0 0.00 0.00 0.00 34 1021.3
20260831184047 78 204 2.0 12.0 0.00 0.00 0.00 33 1021.1
20260831183546 77 215 3.0 12.0 0.00 0.00 0.00 34 1021.1
20260831183105 77 188 3.0 10.0 0.00 0.00 0.00 32 1021.2
20260831182546 77 224 3.0 7.0 0.00 0.00 0.00 29 1021.2
20260831182045 77 126 2.0 12.0 0.00 0.00 0.00 31 1021.1
20260831181600 77 148 1.0 12.0 0.00 0.00 0.00 31 1021.1
20260831181046 76 147 2.0 12.0 0.00 0.00 0.00 32 1021.1
20260831180547 76 65 3.0 13.0 0.00 0.00 0.00 30 1021.0
20260831180104 76 158 3.0 13.0 0.00 0.00 0.00 30 1021.1
20260831175546 76 17 2.0 6.0 0.00 0.00 0.00 32 1021.0
20260831175048 76 186 2.0 6.0 0.00 0.00 0.00 33 1021.1
20260831174610 76 175 1.0 7.0 0.00 0.00 0.00 30 1020.9
20260831174046 76 0 2.0 7.0 0.00 0.00 0.00 34 1021.0
20260831173549 75 140 1.0 8.0 0.00 0.00 0.00 32 1021.0
20260831173103 75 128 3.0 8.0 0.00 0.00 0.00 32 1020.9
20260831172547 75 302 2.0 8.0 0.00 0.00 0.00 31 1021.0
20260831172045 75 119 1.0 6.0 0.00 0.00 0.00 29 1020.8
20260831171600 75 132 1.0 6.0 0.00 0.00 0.00 31 1021.0
20260831171047 75 159 1.0 7.0 0.00 0.00 0.00 28 1020.9
20260831170546 75 146 2.0 9.0 0.00 0.00 0.00 30 1020.8
20260831170105 75 185 1.0 10.0 0.00 0.00 0.00 28 1020.7
20260831165546 74 141 2.0 10.0 0.00 0.00 0.00 26 1020.6
20260831165046 74 192 3.0 9.0 0.00 0.00 0.00 27 1020.7
20260831164609 74 158 1.0 6.0 0.00 0.00 0.00 30 1020.6
20260831164049 74 159 1.0 9.0 0.00 0.00 0.00 25 1020.7
20260831163545 73 0 0.0 9.0 0.00 0.00 0.00 24 1020.6
20260831163104 73 172 2.0 9.0 0.00 0.00 0.00 26 1020.6
20260831162548 72 131 1.0 7.0 0.00 0.00 0.00 23 1020.6
20260831162049 72 152 1.0 7.0 0.00 0.00 0.00 28 1020.6
20260831161601 72 157 2.0 7.0 0.00 0.00 0.00 22 1020.6
20260831161047 72 179 0.0 5.0 0.00 0.00 0.00 26 1020.6
20260831160547 71 0 1.0 5.0 0.00 0.00 0.00 25 1020.5
20260831160106 71 208 0.0 2.0 0.00 0.00 0.00 23 1020.3
20260831155548 69 0 0.0 5.0 0.00 0.00 0.00 24 1020.3
20260831155048 68 0 0.0 5.0 0.00 0.00 0.00 26 1020.3
20260831154633 67 0 0.0 4.0 0.00 0.00 0.00 27 1020.2
20260831154048 65 0 0.0 4.0 0.00 0.00 0.00 29 1020.2
20260831153547 64 46 1.0 4.0 0.00 0.00 0.00 30 1020.2
20260831153102 63 0 1.0 4.0 0.00 0.00 0.00 30 1020.3
20260831152551 62 326 1.0 3.0 0.00 0.00 0.00 33 1020.3
20260831152046 62 50 0.0 3.0 0.00 0.00 0.00 34 1020.2
20260831151605 61 0 1.0 3.0 0.00 0.00 0.00 34 1020.1
20260831151046 61 42 0.0 3.0 0.00 0.00 0.00 35 1020.1
20260831150544 60 42 0.0 0.0 0.00 0.00 0.00 35 1020.0
20260831145544 60 0 0.0 0.0 0.00 0.00 0.00 35 1020.0
20260831145045 60 0 0.0 0.0 0.00 0.00 0.00 35 1020.0
20260831144604 60 0 0.0 0.0 0.00 0.00 0.00 35 1020.0
20260831144049 59 0 0.0 0.0 0.00 0.00 0.00 36 1020.0
20260831143547 59 0 0.0 1.0 0.00 0.00 0.00 35 1019.9
20260831143110 59 0 0.0 1.0 0.00 0.00 0.00 35 1019.8
20260831142617 59 0 0.0 1.0 0.00 0.00 0.00 36 1019.8
20260831142047 59 0 0.0 1.0 0.00 0.00 0.00 36 1019.6
20260831141603 59 0 0.0 1.0 0.00 0.00 0.00 35 1019.6
20260831141046 59 0 0.0 1.0 0.00 0.00 0.00 35 1019.4
20260831140547 59 0 0.0 0.0 0.00 0.00 0.00 35 1019.4
20260831140101 59 0 0.0 0.0 0.00 0.00 0.00 35 1019.3
20260831135548 59 0 0.0 1.0 0.00 0.00 0.00 34 1019.3
20260831135047 59 0 0.0 2.0 0.00 0.00 0.00 34 1019.2
20260831134604 59 0 0.0 2.0 0.00 0.00 0.00 35 1019.1
20260831134047 59 0 0.0 1.0 0.00 0.00 0.00 35 1019.0
20260831133546 59 0 0.0 2.0 0.00 0.00 0.00 36 1019.0
20260831133102 59 0 0.0 2.0 0.00 0.00 0.00 36 1019.0
20260831132546 59 9 0.0 2.0 0.00 0.00 0.00 37 1018.9
20260831132050 59 17 0.0 2.0 0.00 0.00 0.00 37 1018.8
20260831131602 59 0 0.0 2.0 0.00 0.00 0.00 37 1018.9
20260831131044 59 17 0.0 2.0 0.00 0.00 0.00 37 1018.8
20260831130544 59 0 0.0 1.0 0.00 0.00 0.00 37 1018.8
20260831130118 59 0 0.0 1.0 0.00 0.00 0.00 37 1018.8
20260831125546 59 0 0.0 1.0 0.00 0.00 0.00 36 1018.8
20260831125049 59 0 0.0 1.0 0.00 0.00 0.00 35 1018.8
20260831124603 59 0 0.0 1.0 0.00 0.00 0.00 37 1018.7
20260831124044 59 0 0.0 1.0 0.00 0.00 0.00 38 1018.8
20260831123547 59 0 0.0 1.0 0.00 0.00 0.00 38 1018.8
20260831123101 59 0 0.0 1.0 0.00 0.00 0.00 37 1018.7
20260831122549 59 0 0.0 1.0 0.00 0.00 0.00 36 1018.8
20260831122047 59 0 0.0 1.0 0.00 0.00 0.00 34 1018.7
20260831121606 59 0 0.0 1.0 0.00 0.00 0.00 35 1018.7
20260831121047 59 0 0.0 2.0 0.00 0.00 0.00 37 1018.6
20260831120546 59 0 0.0 2.0 0.00 0.00 0.00 39 1018.6
20260831120105 59 0 0.0 1.0 0.00 0.00 0.00 41 1018.6
20260831115546 59 0 0.0 1.0 0.00 0.00 0.00 42 1018.7
20260831115047 59 0 0.0 1.0 0.00 0.00 0.00 43 1018.7
20260831114602 59 0 0.0 1.0 0.00 0.00 0.00 45 1018.7
20260831114048 59 0 0.0 1.0 0.00 0.00 0.00 42 1018.7
20260831113547 59 0 0.0 1.0 0.00 0.00 0.00 43 1018.8
20260831113137 59 0 0.0 1.0 0.00 0.00 0.00 43 1018.7
20260831112550 59 0 0.0 3.0 0.00 0.00 0.00 43 1018.7
20260831112046 59 0 0.0 3.0 0.00 0.00 0.00 43 1018.7
20260831111600 59 17 0.0 3.0 0.00 0.00 0.00 42 1018.7
20260831111045 59 0 0.0 2.0 0.00 0.00 0.00 43 1018.8
20260831110550 60 0 0.0 2.0 0.00 0.00 0.00 43 1018.8
20260831105547 60 331 0.0 2.0 0.00 0.00 0.00 41 1018.9
20260831105047 60 0 1.0 2.0 0.00 0.00 0.00 44 1018.9
20260831104605 60 331 0.0 2.0 0.00 0.00 0.00 45 1018.8
20260831104048 60 0 0.0 2.0 0.00 0.00 0.00 45 1018.9
20260831103546 60 0 0.0 2.0 0.00 0.00 0.00 45 1018.9
20260831103113 60 0 0.0 2.0 0.00 0.00 0.00 43 1018.9
20260831102546 61 331 0.0 2.0 0.00 0.00 0.00 39 1018.9
20260831102047 61 0 0.0 2.0 0.00 0.00 0.00 42 1018.8
20260831101602 61 0 0.0 2.0 0.00 0.00 0.00 45 1018.9
20260831101046 61 0 0.0 2.0 0.00 0.00 0.00 48 1018.9
20260831100549 62 0 0.0 2.0 0.00 0.00 0.00 46 1018.8
20260831100106 62 331 1.0 2.0 0.00 0.00 0.00 48 1018.9
20260831095547 62 331 0.0 2.0 0.00 0.00 0.00 50 1019.0
20260831095047 62 0 0.0 2.0 0.00 0.00 0.00 51 1019.0
20260831094606 61 331 0.0 2.0 0.00 0.00 0.00 54 1019.1
20260831094048 61 0 0.0 2.0 0.00 0.00 0.00 54 1019.1
20260831093545 61 0 0.0 2.0 0.00 0.00 0.00 53 1019.1
20260831093112 61 0 0.0 1.0 0.00 0.00 0.00 54 1019.2
20260831092545 61 0 0.0 2.0 0.00 0.00 0.00 54 1019.2
20260831092048 61 0 0.0 3.0 0.00 0.00 0.00 53 1019.2
20260831091600 61 40 0.0 3.0 0.00 0.00 0.00 53 1019.2
20260831091050 61 0 1.0 3.0 0.00 0.00 0.00 53 1019.2
20260831090548 61 148 0.0 1.0 0.00 0.00 0.00 55 1019.3
20260831090109 61 0 0.0 2.0 0.00 0.00 0.00 53 1019.3
20260831085549 61 0 0.0 2.0 0.00 0.00 0.00 54 1019.4
20260831085047 61 0 0.0 1.0 0.00 0.00 0.00 54 1019.3
20260831084602 61 148 0.0 1.0 0.00 0.00 0.00 54 1019.4
20260831084045 62 0 0.0 1.0 0.00 0.00 0.00 54 1019.4
20260831083545 62 0 0.0 1.0 0.00 0.00 0.00 55 1019.5
20260831083109 62 0 0.0 2.0 0.00 0.00 0.00 55 1019.5
20260831082547 62 0 0.0 2.0 0.00 0.00 0.00 55 1019.6
20260831082046 62 0 0.0 1.0 0.00 0.00 0.00 56 1019.6
20260831081609 62 0 0.0 1.0 0.00 0.00 0.00 56 1019.6
20260831081046 62 0 0.0 1.0 0.00 0.00 0.00 55 1019.7
20260831080546 62 0 0.0 1.0 0.00 0.00 0.00 55 1019.7
20260831080108 62 0 0.0 1.0 0.00 0.00 0.00 56 1019.7
20260831075545 62 0 0.0 1.0 0.00 0.00 0.00 56 1019.8
20260831075047 62 0 0.0 1.0 0.00 0.00 0.00 56 1019.8
20260831074602 62 0 0.0 1.0 0.00 0.00 0.00 56 1019.8
20260831074047 62 0 0.0 2.0 0.00 0.00 0.00 56 1019.9
20260831073546 62 0 0.0 2.0 0.00 0.00 0.00 58 1019.9
20260831073108 61 148 0.0 2.0 0.00 0.00 0.00 58 1019.8
20260831072545 61 0 0.0 1.0 0.00 0.00 0.00 56 1019.9
20260831072044 61 0 0.0 1.0 0.00 0.00 0.00 55 1019.8
20260831071603 62 0 0.0 1.0 0.00 0.00 0.00 57 1019.8
20260831071046 62 0 0.0 1.0 0.00 0.00 0.00 58 1019.9
20260831070547 62 0 0.0 1.0 0.00 0.00 0.00 57 1020.0
20260831070109 62 0 0.0 1.0 0.00 0.00 0.00 57 1019.9
20260831065544 62 0 0.0 1.0 0.00 0.00 0.00 57 1020.0
20260831065048 62 0 0.0 0.0 0.00 0.00 0.00 57 1020.0
20260831064605 62 0 0.0 1.0 0.00 0.00 0.00 56 1019.9
20260831064050 62 0 0.0 1.0 0.00 0.00 0.00 56 1019.9
20260831063547 62 0 0.0 1.0 0.00 0.00 0.00 57 1019.9
20260831063105 62 0 0.0 1.0 0.00 0.00 0.00 57 1019.8
20260831062545 62 0 0.0 1.0 0.00 0.00 0.00 57 1019.8
20260831062048 63 0 0.0 1.0 0.00 0.00 0.00 57 1019.7
20260831061608 63 0 0.0 0.0 0.00 0.00 0.00 56 1019.8
20260831061049 62 0 0.0 1.0 0.00 0.00 0.00 56 1019.7
20260831060547 63 0 0.0 1.0 0.00 0.00 0.00 56 1019.6
20260831060105 63 0 0.0 1.0 0.00 0.00 0.00 57 1019.7
20260831055547 63 0 0.0 1.0 0.00 0.00 0.00 57 1019.7
20260831055047 63 0 0.0 1.0 0.00 0.00 0.00 57 1019.7
20260831054611 63 0 0.0 0.0 0.00 0.00 0.00 58 1019.7
20260831054048 63 0 0.0 0.0 0.00 0.00 0.00 59 1019.7
20260831053545 63 0 0.0 1.0 0.00 0.00 0.00 60 1019.7
20260831053102 63 0 0.0 1.0 0.00 0.00 0.00 60 1019.7
20260831052549 63 0 0.0 0.0 0.00 0.00 0.00 62 1019.7
20260831052044 63 0 0.0 1.0 0.00 0.00 0.00 62 1019.7
20260831051611 63 0 0.0 1.0 0.00 0.00 0.00 63 1019.7
20260831051043 63 0 0.0 2.0 0.00 0.00 0.00 63 1019.7
20260831050543 63 0 0.0 2.0 0.00 0.00 0.00 63 1019.7
20260831050107 63 148 0.0 1.0 0.00 0.00 0.00 63 1019.7
20260831045543 63 0 0.0 0.0 0.00 0.00 0.00 63 1019.7
20260831045044 63 0 0.0 1.0 0.00 0.00 0.00 64 1019.8
20260831044613 63 0 0.0 1.0 0.00 0.00 0.00 64 1019.8
20260831044047 63 0 0.0 1.0 0.00 0.00 0.00 65 1019.8
20260831043543 63 0 0.0 2.0 0.00 0.00 0.00 63 1019.9
20260831043101 64 0 0.0 2.0 0.00 0.00 0.00 65 1019.7
20260831042549 64 148 0.0 2.0 0.00 0.00 0.00 68 1019.8
20260831042048 64 0 0.0 1.0 0.00 0.00 0.00 67 1019.8
20260831041606 64 0 0.0 1.0 0.00 0.00 0.00 69 1019.7
20260831041047 64 0 0.0 1.0 0.00 0.00 0.00 69 1019.7
20260831040545 65 0 0.0 1.0 0.00 0.00 0.00 70 1019.7
20260831040107 65 0 0.0 1.0 0.00 0.00 0.00 71 1019.7
20260831035543 65 0 0.0 1.0 0.00 0.00 0.00 70 1019.6
20260831035048 65 0 0.0 1.0 0.00 0.00 0.00 71 1019.6
20260831034601 65 0 0.0 1.0 0.00 0.00 0.00 70 1019.5
20260831034047 66 0 0.0 1.0 0.00 0.00 0.00 69 1019.4
20260831033544 66 0 0.0 0.0 0.00 0.00 0.00 69 1019.3
20260831033106 66 0 0.0 0.0 0.00 0.00 0.00 69 1019.3
20260831032547 67 0 0.0 2.0 0.00 0.00 0.00 69 1019.3
20260831032050 67 0 0.0 2.0 0.00 0.00 0.00 68 1019.3
20260831031558 67 0 0.0 1.0 0.00 0.00 0.00 68 1019.2
20260831031046 68 0 0.0 1.0 0.00 0.00 0.00 68 1019.1